Sacramento International, CA

5:51 PM PDT on July 25, 2017 (GMT -0700)
Sacramento International

Weather History for KSMF - July, 2013

Change the Weather History Date:

Wednesday, July 24, 2013

  Actual Average Record
Temperature  
Mean Temperature 80 °F -  
Max Temperature 98 °F 93 °F 107 °F (2006)
Min Temperature 64 °F 58 °F 52 °F (1968)
Cooling Degree Days 16    
Growing Degree Days 30 (Base 50)    
Moisture  
Dew Point 56 °F    
Average Humidity 47    
Maximum Humidity 73    
Minimum Humidity 25    
Precipitation  
Precipitation 0.00 in - - ()
Sea Level Pressure  
Sea Level Pressure 29.88 in    
Wind  
Wind Speed 8 mph (South)    
Max Wind Speed 13 mph    
Max Gust Speed -    
Visibility 10 miles    
Events      
Averages and records for this station are not official NWS values.
T = Trace of Precipitation, MM = Missing Value Source: NWS Daily Summary

Daily Weather History Graph

Daily Weather History Graph

Search for Another Location

Airport or City:

Trip Planner

Search our weather history database for the weather conditions in past years. The results will help you decide how hot, cold, wet, or windy it might be!

Date:

Astronomy

Jul. 24, 2013 Rise Set
Actual Time 6:01 AM PDT 8:24 PM PDT
Civil Twilight 5:30 AM PDT 8:54 PM PDT
Nautical Twilight 4:53 AM PDT 9:31 PM PDT
Astronomical Twilight 4:12 AM PDT 10:12 PM PDT
Moon 9:35 PM PDT (7/24) 8:25 AM PDT (7/24)
Length of Visible Light 15h 23m
Length of Day
14h 22m
Waning Gibbous, 94% of the Moon is Illuminated
Jul 24
Waning Gibbous
Jul 29
Last Quarter
Aug 6
New
Aug 14
First Quarter
Aug 20
Full

Hourly Weather History & Observations

Time (PDT) Temp. Heat Index Dew Point Humidity Pressure Visibility Wind Dir Wind Speed Gust Speed Precip Events Conditions
12:53 AM 71.1 °F - 51.1 °F 49% 29.89 in 10.0 mi SSE 8.1 mph - N/A   Clear
1:53 AM 68.0 °F - 52.0 °F 56% 29.89 in 10.0 mi SSE 8.1 mph - N/A   Clear
2:53 AM 66.0 °F - 53.1 °F 63% 29.88 in 10.0 mi South 8.1 mph - N/A   Clear
3:53 AM 64.9 °F - 54.0 °F 68% 29.88 in 10.0 mi SSE 9.2 mph - N/A   Clear
4:53 AM 64.9 °F - 54.0 °F 68% 29.89 in 10.0 mi SSE 5.8 mph - N/A   Clear
5:53 AM 64.0 °F - 55.0 °F 73% 29.91 in 10.0 mi SSE 8.1 mph - N/A   Clear
6:53 AM 64.9 °F - 55.0 °F 70% 29.92 in 10.0 mi SSE 9.2 mph - N/A   Clear
7:53 AM 66.9 °F - 55.9 °F 68% 29.93 in 10.0 mi South 8.1 mph - N/A   Clear
8:53 AM 70.0 °F - 57.0 °F 63% 29.94 in 10.0 mi South 9.2 mph - N/A   Partly Cloudy
9:53 AM 75.0 °F - 57.9 °F 55% 29.94 in 10.0 mi South 5.8 mph - N/A   Clear
10:53 AM 80.1 °F 80.9 °F 60.1 °F 50% 29.93 in 10.0 mi SSW 6.9 mph - N/A   Clear
11:53 AM 84.9 °F 83.9 °F 57.0 °F 38% 29.92 in 10.0 mi WSW 5.8 mph - N/A   Clear
12:53 PM 88.0 °F 86.7 °F 57.0 °F 35% 29.91 in 10.0 mi WSW 5.8 mph - N/A   Clear
1:53 PM 93.0 °F 92.0 °F 57.9 °F 31% 29.89 in 10.0 mi WSW 5.8 mph - N/A   Clear
2:53 PM 95.0 °F 94.0 °F 57.9 °F 29% 29.87 in 10.0 mi West 6.9 mph - N/A   Clear
3:53 PM 96.1 °F 94.8 °F 57.0 °F 27% 29.86 in 10.0 mi SW 5.8 mph - N/A   Clear
4:53 PM 97.0 °F 96.1 °F 57.9 °F 27% 29.83 in 10.0 mi WSW 5.8 mph - N/A   Clear
5:53 PM 97.0 °F 95.7 °F 57.0 °F 26% 29.82 in 10.0 mi SSW 9.2 mph - N/A   Clear
6:53 PM 96.1 °F 94.1 °F 55.0 °F 25% 29.81 in 10.0 mi South 6.9 mph - N/A   Clear
7:53 PM 91.0 °F 90.0 °F 57.9 °F 33% 29.81 in 10.0 mi South 8.1 mph - N/A   Scattered Clouds
8:53 PM 86.0 °F 84.9 °F 57.0 °F 37% 29.82 in 10.0 mi South 9.2 mph - N/A   Partly Cloudy
9:53 PM 80.1 °F 80.4 °F 57.0 °F 45% 29.83 in 10.0 mi South 8.1 mph - N/A   Clear
10:53 PM 75.0 °F - 54.0 °F 48% 29.84 in 10.0 mi South 12.7 mph - N/A   Clear
11:53 PM 73.0 °F - 54.0 °F 51% 29.84 in 10.0 mi South 6.9 mph - N/A   Clear